| time (UTC) | temp F | wind direction | speed knots | gust knots | rain 1hr in | rain 24hr in | rain mn in | humidity % | barometer mb |
| 20260509164525 | 58 | 5 | 12.2 | 18.2 | 0.00 | 0.00 | 0.00 | 40 | 1005.4 |
| 20260509163027 | 58 | 340 | 9.6 | 17.4 | 0.00 | 0.00 | 0.00 | 39 | 1005.1 |
| 20260509161512 | 58 | 360 | 10.4 | 18.2 | 0.00 | 0.00 | 0.00 | 44 | 1005.0 |
| 20260509160009 | 58 | 336 | 5.2 | 13.9 | 0.00 | 0.00 | 0.00 | 50 | 1004.9 |
| 20260509154544 | 56 | 32 | 7.8 | 14.8 | 0.00 | 0.00 | 0.00 | 55 | 1004.8 |
| 20260509153040 | 55 | 321 | 7.0 | 13.0 | 0.00 | 0.00 | 0.00 | 58 | 1004.5 |
| 20260509151507 | 55 | 321 | 5.2 | 13.0 | 0.00 | 0.00 | 0.00 | 61 | 1004.3 |
| 20260509150007 | 54 | 5 | 7.0 | 12.2 | 0.00 | 0.00 | 0.00 | 60 | 1004.1 |
| 20260509144504 | 54 | 312 | 7.0 | 12.2 | 0.00 | 0.00 | 0.00 | 61 | 1003.9 |
| 20260509143006 | 55 | 5 | 7.8 | 13.9 | 0.00 | 0.00 | 0.00 | 62 | 1003.8 |
| 20260509141503 | 54 | 19 | 9.6 | 16.5 | 0.00 | 0.00 | 0.00 | 62 | 1003.5 |
| 20260509140002 | 53 | 360 | 7.0 | 12.2 | 0.00 | 0.00 | 0.00 | 67 | 1003.4 |
| 20260509134529 | 53 | 32 | 5.2 | 11.3 | 0.00 | 0.00 | 0.00 | 64 | 1003.1 |
| 20260509133027 | 53 | 12 | 7.8 | 14.8 | 0.00 | 0.00 | 0.00 | 60 | 1002.8 |
| 20260509131525 | 53 | 355 | 3.5 | 6.1 | 0.00 | 0.00 | 0.00 | 54 | 1002.5 |
| 20260509130024 | 54 | 296 | 1.7 | 5.2 | 0.00 | 0.00 | 0.00 | 51 | 1002.2 |
| 20260509124528 | 54 | 265 | 1.7 | 4.3 | 0.00 | 0.00 | 0.00 | 51 | 1002.1 |
| 20260509123032 | 54 | 302 | 0.0 | 2.6 | 0.00 | 0.00 | 0.00 | 52 | 1001.9 |
| 20260509121523 | 53 | 269 | 0.0 | 1.7 | 0.00 | 0.00 | 0.00 | 53 | 1001.7 |
| 20260509120020 | 53 | 323 | 0.9 | 1.7 | 0.00 | 0.00 | 0.00 | 50 | 1001.5 |
| 20260509114519 | 52 | 241 | 0.0 | 2.6 | 0.00 | 0.00 | 0.00 | 52 | 1001.4 |
| 20260509113019 | 52 | 311 | 1.7 | 4.3 | 0.00 | 0.00 | 0.00 | 54 | 1001.5 |
| 20260509111529 | 51 | 238 | 0.0 | 2.6 | 0.00 | 0.00 | 0.00 | 55 | 1000.8 |
| 20260509110014 | 52 | 277 | 0.9 | 2.6 | 0.00 | 0.00 | 0.00 | 52 | 1000.9 |
| 20260509104524 | 51 | 187 | 0.0 | 1.7 | 0.00 | 0.00 | 0.00 | 53 | 1001.1 |
| 20260509103012 | 51 | 360 | 1.7 | 4.3 | 0.00 | 0.00 | 0.00 | 51 | 1001.1 |
| 20260509101514 | 51 | 5 | 0.0 | 2.6 | 0.00 | 0.00 | 0.00 | 52 | 1000.9 |
| 20260509100059 | 50 | 278 | 1.7 | 7.8 | 0.00 | 0.00 | 0.00 | 59 | 1000.6 |
| 20260509094544 | 47 | 18 | 0.9 | 3.5 | 0.00 | 0.00 | 0.00 | 59 | 1000.4 |
| 20260509093006 | 48 | 211 | 0.0 | 1.7 | 0.00 | 0.00 | 0.00 | 58 | 1000.1 |
| 20260509091502 | 50 | 211 | 0.0 | 0.0 | 0.00 | 0.00 | 0.00 | 56 | 1000.2 |
| 20260509090101 | 49 | 211 | 0.0 | 0.9 | 0.00 | 0.00 | 0.00 | 54 | 1000.4 |
| 20260509084600 | 50 | 211 | 0.0 | 0.0 | 0.00 | 0.00 | 0.00 | 51 | 1000.3 |
| 20260509083059 | 50 | 211 | 0.0 | 0.9 | 0.00 | 0.00 | 0.00 | 52 | 1000.3 |
| 20260509081602 | 50 | 211 | 0.0 | 1.7 | 0.00 | 0.00 | 0.00 | 49 | 1000.0 |
| 20260509080028 | 49 | 223 | 0.0 | 2.6 | 0.00 | 0.00 | 0.00 | 52 | 1000.1 |
| 20260509074527 | 49 | 219 | 0.9 | 2.6 | 0.00 | 0.00 | 0.00 | 52 | 1000.2 |
| 20260509073023 | 50 | 252 | 0.0 | 0.9 | 0.00 | 0.00 | 0.00 | 51 | 1000.4 |
| 20260509071519 | 50 | 206 | 0.9 | 2.6 | 0.00 | 0.00 | 0.00 | 49 | 1000.4 |
| 20260509070015 | 54 | 248 | 0.0 | 0.9 | 0.00 | 0.00 | 0.00 | 41 | 1000.7 |
| 20260509064525 | 55 | 248 | 0.0 | 0.0 | 0.00 | 0.00 | 0.00 | 38 | 1000.7 |
| 20260509063010 | 56 | 271 | 0.0 | 1.7 | 0.00 | 0.00 | 0.00 | 35 | 1000.8 |
| 20260509061526 | 58 | 302 | 0.0 | 3.5 | 0.00 | 0.00 | 0.00 | 33 | 1000.8 |
| 20260509060009 | 58 | 306 | 2.6 | 7.0 | 0.00 | 0.00 | 0.00 | 32 | 1000.9 |
| 20260509054509 | 59 | 301 | 2.6 | 7.0 | 0.00 | 0.00 | 0.00 | 31 | 1001.0 |
| 20260509053018 | 59 | 284 | 4.3 | 11.3 | 0.00 | 0.00 | 0.00 | 31 | 1001.2 |
| 20260509051507 | 60 | 347 | 4.3 | 9.6 | 0.00 | 0.00 | 0.00 | 31 | 1001.1 |
| 20260509050008 | 60 | 322 | 3.5 | 10.4 | 0.00 | 0.00 | 0.00 | 33 | 1001.0 |
| 20260509044505 | 61 | 326 | 4.3 | 13.0 | 0.00 | 0.00 | 0.00 | 33 | 1000.9 |
| 20260509043034 | 59 | 315 | 1.7 | 5.2 | 0.00 | 0.00 | 0.00 | 36 | 1000.8 |
| 20260509041534 | 60 | 318 | 1.7 | 5.2 | 0.00 | 0.00 | 0.00 | 36 | 1000.6 |
| 20260509040029 | 59 | 287 | 2.6 | 5.2 | 0.00 | 0.00 | 0.00 | 37 | 1000.5 |
| 20260509034535 | 59 | 329 | 1.7 | 4.3 | 0.00 | 0.00 | 0.00 | 38 | 1000.4 |
| 20260509033028 | 57 | 317 | 0.9 | 4.3 | 0.00 | 0.00 | 0.00 | 41 | 1000.3 |
| 20260509031527 | 55 | 282 | 0.9 | 2.6 | 0.00 | 0.00 | 0.00 | 49 | 1000.2 |
| 20260509030025 | 52 | 280 | 0.0 | 2.6 | 0.00 | 0.00 | 0.00 | 57 | 1000.1 |
| 20260509024525 | 54 | 286 | 0.9 | 1.7 | 0.00 | 0.00 | 0.00 | 53 | 999.9 |
| 20260509023019 | 53 | 228 | 0.0 | 1.7 | 0.00 | 0.00 | 0.00 | 53 | 999.9 |
| 20260509021515 | 55 | 240 | 0.9 | 1.7 | 0.00 | 0.00 | 0.00 | 48 | 999.7 |
| 20260509020006 | 56 | 236 | 0.0 | 1.7 | 0.00 | 0.00 | 0.00 | 47 | 999.7 |
| 20260509014503 | 58 | 236 | 0.0 | 2.6 | 0.00 | 0.00 | 0.00 | 46 | 999.5 |
| 20260509013059 | 59 | 226 | 0.0 | 3.5 | 0.00 | 0.00 | 0.00 | 43 | 999.5 |
| 20260509011553 | 60 | 204 | 0.9 | 2.6 | 0.00 | 0.00 | 0.00 | 43 | 999.5 |
| 20260509010046 | 65 | 97 | 0.0 | 0.0 | 0.00 | 0.00 | 0.00 | 34 | 999.4 |
| 20260509004540 | 67 | 97 | 0.0 | 0.9 | 0.00 | 0.00 | 0.00 | 33 | 999.4 |
| 20260509003040 | 69 | 97 | 0.0 | 1.7 | 0.00 | 0.00 | 0.00 | 26 | 999.4 |
| 20260509001534 | 70 | 99 | 0.0 | 0.9 | 0.00 | 0.00 | 0.00 | 25 | 999.4 |
| 20260509000031 | 70 | 92 | 0.9 | 4.3 | 0.00 | 0.00 | 0.00 | 24 | 999.4 |
| 20260508234529 | 71 | 84 | 0.0 | 3.5 | 0.00 | 0.00 | 0.00 | 25 | 999.6 |
| 20260508233026 | 70 | 340 | 1.7 | 5.2 | 0.00 | 0.00 | 0.00 | 25 | 999.7 |
| 20260508231523 | 69 | 355 | 2.6 | 6.1 | 0.00 | 0.00 | 0.00 | 25 | 999.8 |
| 20260508230024 | 70 | 22 | 2.6 | 6.1 | 0.00 | 0.00 | 0.00 | 24 | 1000.0 |
| 20260508230021 | 70 | 12 | 2.6 | 6.1 | 0.00 | 0.00 | 0.00 | 24 | 1000.0 |
| 20260508224526 | 72 | 269 | 2.6 | 7.0 | 0.00 | 0.00 | 0.00 | 22 | 1000.0 |
| 20260508223033 | 71 | 309 | 2.6 | 7.0 | 0.00 | 0.00 | 0.00 | 21 | 1000.1 |
| 20260508221511 | 71 | 259 | 2.6 | 7.8 | 0.00 | 0.00 | 0.00 | 23 | 1000.3 |
| 20260508220009 | 70 | 306 | 1.7 | 7.0 | 0.00 | 0.00 | 0.00 | 23 | 1000.5 |
| 20260508214506 | 71 | 320 | 3.5 | 7.8 | 0.00 | 0.00 | 0.00 | 21 | 1000.8 |
| 20260508213100 | 71 | 311 | 4.3 | 9.6 | 0.00 | 0.00 | 0.00 | 21 | 1000.9 |
| 20260508211558 | 72 | 316 | 3.5 | 13.0 | 0.00 | 0.00 | 0.00 | 21 | 1001.1 |
| 20260508210057 | 70 | 285 | 5.2 | 13.0 | 0.00 | 0.00 | 0.00 | 22 | 1001.3 |
| 20260508204550 | 71 | 258 | 6.1 | 9.6 | 0.00 | 0.00 | 0.00 | 21 | 1001.6 |
| 20260508203056 | 70 | 350 | 6.1 | 10.4 | 0.00 | 0.00 | 0.00 | 20 | 1001.8 |
| 20260508201547 | 71 | 302 | 2.6 | 10.4 | 0.00 | 0.00 | 0.00 | 22 | 1001.8 |
| 20260508200043 | 72 | 285 | 4.3 | 11.3 | 0.00 | 0.00 | 0.00 | 21 | 1002.0 |
| 20260508194536 | 70 | 322 | 7.0 | 13.0 | 0.00 | 0.00 | 0.00 | 21 | 1002.3 |
| 20260508193044 | 73 | 257 | 5.2 | 10.4 | 0.00 | 0.00 | 0.00 | 20 | 1002.4 |
| 20260508191536 | 73 | 344 | 5.2 | 9.6 | 0.00 | 0.00 | 0.00 | 19 | 1002.7 |
| 20260508190031 | 71 | 282 | 4.3 | 11.3 | 0.00 | 0.00 | 0.00 | 22 | 1003.0 |
| 20260508184524 | 71 | 315 | 7.0 | 14.8 | 0.00 | 0.00 | 0.00 | 21 | 1003.4 |
| 20260508183017 | 71 | 360 | 4.3 | 9.6 | 0.00 | 0.00 | 0.00 | 21 | 1003.4 |
| 20260508181513 | 71 | 344 | 5.2 | 15.6 | 0.00 | 0.00 | 0.00 | 22 | 1003.7 |
| 20260508180009 | 70 | 265 | 1.7 | 12.2 | 0.00 | 0.00 | 0.00 | 22 | 1003.9 |
| 20260508174615 | 70 | 265 | 5.2 | 10.4 | 0.00 | 0.00 | 0.00 | 21 | 1004.3 |
| 20260508173057 | 68 | 314 | 4.3 | 11.3 | 0.00 | 0.00 | 0.00 | 22 | 1004.6 |
| 20260508171552 | 67 | 289 | 2.6 | 9.6 | 0.00 | 0.00 | 0.00 | 23 | 1004.9 |
| 20260508170046 | 66 | 285 | 2.6 | 11.3 | 0.00 | 0.00 | 0.00 | 24 | 1005.2 |